When you browse on this site, cookies collect data to enhance your experience and personalize the content and advertising you see.
Visit our Privacy Policy to learn more. By continuing to use the site, you agree to this use of cookies and data.
  • In Portugal
  • List of Countries
  • For 7 days
  • Water Temperature
  • Weather Map
  • Weather Widgets
  • user-avatar
    Login

    Hourly Weather Sharanski

    Today, 20 January, Monday

    Time Temperature Precipitation Wind Pressure Humidity
    00:00 0°C° 0 mm 4 mps 765 mmHg 88%
    01:00 0°C° 0 mm 4 mps 765 mmHg 86%
    02:00 0°C° 0 mm 4 mps 766 mmHg 85%
    03:00 0°C° 0 mm 4 mps 766 mmHg 87%
    04:00 0°C° 0 mm 4 mps 766 mmHg 88%
    05:00 -1°C° 0 mm 4 mps 766 mmHg 90%
    06:00 -1°C° 0 mm 4 mps 766 mmHg 90%
    07:00 -1°C° 0 mm 4 mps 766 mmHg 90%
    08:00 -1°C° 0 mm 4 mps 766 mmHg 89%
    09:00 -1°C° 0 mm 4 mps 766 mmHg 87%
    10:00 0°C° 0 mm 4 mps 766 mmHg 85%
    11:00 0°C° 0 mm 4 mps 766 mmHg 83%
    12:00 +1°C° 0 mm 4 mps 766 mmHg 79%
    13:00 +1°C° 0 mm 4 mps 766 mmHg 75%
    14:00 +1°C° 0 mm 4 mps 766 mmHg 72%
    15:00 +1°C° 0 mm 4 mps 765 mmHg 72%
    16:00 0°C° 0 mm 4 mps 765 mmHg 72%
    17:00 0°C° 0 mm 4 mps 764 mmHg 73%
    18:00 0°C° 0 mm 4 mps 764 mmHg 73%
    19:00 0°C° 0 mm 4 mps 763 mmHg 74%
    20:00 0°C° 0 mm 4 mps 763 mmHg 75%
    21:00 0°C° 0 mm 5 mps 762 mmHg 79%
    22:00 0°C° 0 mm 5 mps 761 mmHg 82%
    23:00 +1°C° 0 mm 5 mps 761 mmHg 85%

    Tomorrow, 21 January, Tuesday

    Time Temperature Precipitation Wind Pressure Humidity
    00:00 +1°C° 0 mm 5 mps 760 mmHg 85%
    01:00 +1°C° 0 mm 5 mps 759 mmHg 85%
    02:00 +2°C° 0 mm 5 mps 759 mmHg 85%
    03:00 +2°C° 0 mm 6 mps 758 mmHg 85%
    04:00 +3°C° 0 mm 6 mps 757 mmHg 85%
    05:00 +4°C° 0 mm 6 mps 756 mmHg 85%
    06:00 +4°C° 0 mm 6 mps 756 mmHg 86%
    07:00 +4°C° 0 mm 6 mps 755 mmHg 86%
    08:00 +4°C° 0 mm 6 mps 755 mmHg 86%
    09:00 +5°C° 0 mm 6 mps 754 mmHg 85%
    10:00 +5°C° 0 mm 6 mps 754 mmHg 84%
    11:00 +5°C° 0 mm 6 mps 753 mmHg 83%
    12:00 +5°C° 0 mm 6 mps 752 mmHg 82%
    13:00 +5°C° 0 mm 6 mps 752 mmHg 82%
    14:00 +5°C° 0 mm 6 mps 752 mmHg 81%
    15:00 +5°C° 0.7 mm 6 mps 751 mmHg 82%
    16:00 +4°C° 0.7 mm 6 mps 751 mmHg 83%
    17:00 +3°C° 0.7 mm 6 mps 751 mmHg 84%
    18:00 +2°C° 0 mm 6 mps 752 mmHg 79%
    19:00 +2°C° 0 mm 6 mps 752 mmHg 73%
    20:00 +1°C° 0 mm 6 mps 753 mmHg 67%
    21:00 -1°C° 0 mm 6 mps 752 mmHg 69%
    22:00 0°C° 0 mm 5 mps 752 mmHg 71%
    23:00 0°C° 0 mm 5 mps 752 mmHg 73%

    Day after tomorrow, 22 January, Wednesday

    Time Temperature Precipitation Wind Pressure Humidity
    00:00 0°C° 0 mm 5 mps 751 mmHg 71%
    01:00 0°C° 0 mm 5 mps 751 mmHg 69%
    02:00 0°C° 0 mm 5 mps 750 mmHg 67%
    03:00 -1°C° 0 mm 5 mps 750 mmHg 68%
    04:00 -1°C° 0 mm 5 mps 749 mmHg 68%
    05:00 -1°C° 0 mm 4 mps 748 mmHg 69%
    06:00 -1°C° 0.2 mm 4 mps 748 mmHg 73%
    07:00 -1°C° 0.2 mm 5 mps 747 mmHg 76%
    08:00 -1°C° 0.2 mm 5 mps 747 mmHg 80%
    09:00 -1°C° 0 mm 5 mps 747 mmHg 75%
    10:00 -1°C° 0 mm 5 mps 747 mmHg 71%
    11:00 -2°C° 0 mm 6 mps 747 mmHg 67%
    12:00 -1°C° 0 mm 5 mps 747 mmHg 68%
    13:00 -1°C° 0 mm 5 mps 747 mmHg 69%
    14:00 -1°C° 0 mm 5 mps 747 mmHg 69%
    15:00 -1°C° 0.1 mm 5 mps 748 mmHg 75%
    16:00 -2°C° 0.1 mm 5 mps 748 mmHg 81%
    17:00 -2°C° 0.1 mm 5 mps 748 mmHg 87%
    18:00 -2°C° 0 mm 5 mps 749 mmHg 81%
    19:00 -2°C° 0 mm 5 mps 750 mmHg 75%
    20:00 -2°C° 0 mm 5 mps 751 mmHg 69%
    21:00 -4°C° 0 mm 5 mps 751 mmHg 65%
    22:00 -4°C° 0 mm 6 mps 752 mmHg 61%
    23:00 -5°C° 0 mm 6 mps 753 mmHg 57%

    23 January, Thursday

    Time Temperature Precipitation Wind Pressure Humidity
    00:00 -5°C° 0 mm 6 mps 754 mmHg 57%
    01:00 -5°C° 0 mm 6 mps 755 mmHg 57%
    02:00 -5°C° 0 mm 6 mps 756 mmHg 57%
    03:00 -5°C° 0 mm 5 mps 756 mmHg 56%
    04:00 -5°C° 0 mm 5 mps 756 mmHg 56%
    05:00 -4°C° 0 mm 4 mps 757 mmHg 56%
    06:00 -4°C° 0 mm 4 mps 757 mmHg 57%
    07:00 -4°C° 0 mm 4 mps 757 mmHg 57%
    08:00 -5°C° 0 mm 5 mps 758 mmHg 58%
    09:00 -4°C° 0 mm 5 mps 758 mmHg 56%
    10:00 -4°C° 0 mm 5 mps 758 mmHg 55%
    11:00 -4°C° 0 mm 5 mps 759 mmHg 53%
    12:00 -2°C° 0 mm 4 mps 758 mmHg 55%
    13:00 -2°C° 0 mm 4 mps 758 mmHg 56%
    14:00 -1°C° 0 mm 4 mps 758 mmHg 58%
    15:00 -2°C° 0 mm 4 mps 758 mmHg 62%
    16:00 -2°C° 0 mm 4 mps 757 mmHg 67%
    17:00 -2°C° 0 mm 4 mps 756 mmHg 71%
    18:00 -2°C° 0 mm 4 mps 756 mmHg 72%
    19:00 -2°C° 0 mm 4 mps 755 mmHg 74%
    20:00 -2°C° 0 mm 5 mps 754 mmHg 75%
    21:00 -1°C° 0 mm 5 mps 753 mmHg 76%
    22:00 -1°C° 0 mm 5 mps 752 mmHg 78%
    23:00 -1°C° 0 mm 5 mps 751 mmHg 79%

    24 January, Friday

    Time Temperature Precipitation Wind Pressure Humidity
    00:00 0°C° 0.1 mm 5 mps 751 mmHg 83%
    01:00 0°C° 0.1 mm 5 mps 750 mmHg 86%
    02:00 +1°C° 0.1 mm 5 mps 749 mmHg 90%
    03:00 +2°C° 0.2 mm 5 mps 749 mmHg 90%
    04:00 +2°C° 0.2 mm 5 mps 748 mmHg 91%
    05:00 +3°C° 0.2 mm 5 mps 748 mmHg 91%
    06:00 +3°C° 0.1 mm 5 mps 748 mmHg 91%
    07:00 +2°C° 0.1 mm 5 mps 748 mmHg 90%
    08:00 +2°C° 0.1 mm 5 mps 749 mmHg 90%
    09:00 +3°C° 0 mm 4 mps 749 mmHg 90%
    10:00 +3°C° 0 mm 4 mps 749 mmHg 89%
    11:00 +3°C° 0 mm 3 mps 750 mmHg 89%
    12:00 +3°C° 0 mm 3 mps 750 mmHg 88%
    13:00 +3°C° 0 mm 3 mps 750 mmHg 87%
    14:00 +3°C° 0 mm 3 mps 750 mmHg 86%
    15:00 +2°C° 0 mm 3 mps 750 mmHg 88%
    16:00 +3°C° 0 mm 2 mps 750 mmHg 90%
    17:00 +2°C° 0 mm 2 mps 750 mmHg 92%
    18:00 +3°C° 0.1 mm 2 mps 749 mmHg 93%
    19:00 +3°C° 0.1 mm 2 mps 749 mmHg 94%
    20:00 +3°C° 0.1 mm 2 mps 749 mmHg 95%
    21:00 +2°C° 0.2 mm 3 mps 748 mmHg 95%
    22:00 +3°C° 0.2 mm 3 mps 748 mmHg 95%
    23:00 +3°C° 0.2 mm 3 mps 748 mmHg 95%

    25 January, Saturday

    Time Temperature Precipitation Wind Pressure Humidity
    00:00 +3°C° 0.4 mm 3 mps 747 mmHg 94%
    01:00 +4°C° 0.4 mm 4 mps 747 mmHg 93%
    02:00 +3°C° 0.4 mm 5 mps 746 mmHg 91%
    03:00 +4°C° 0.1 mm 4 mps 746 mmHg 91%
    04:00 +4°C° 0.1 mm 4 mps 746 mmHg 90%
    05:00 +4°C° 0.1 mm 4 mps 746 mmHg 90%
    06:00 +4°C° 0.1 mm 4 mps 746 mmHg 90%
    07:00 +4°C° 0.1 mm 4 mps 746 mmHg 91%
    08:00 +4°C° 0.1 mm 4 mps 746 mmHg 92%
    09:00 +4°C° 0.1 mm 4 mps 747 mmHg 90%
    10:00 +4°C° 0.1 mm 4 mps 748 mmHg 89%
    11:00 +5°C° 0.1 mm 4 mps 748 mmHg 87%
    12:00 +5°C° 0.1 mm 4 mps 748 mmHg 83%
    13:00 +5°C° 0.1 mm 4 mps 748 mmHg 80%
    14:00 +5°C° 0.1 mm 4 mps 748 mmHg 76%
    15:00 +4°C° 0 mm 3 mps 749 mmHg 77%
    16:00 +4°C° 0 mm 3 mps 749 mmHg 79%
    17:00 +3°C° 0 mm 3 mps 749 mmHg 80%
    18:00 +3°C° 0 mm 3 mps 749 mmHg 80%
    19:00 +3°C° 0 mm 3 mps 749 mmHg 80%
    20:00 +3°C° 0 mm 3 mps 749 mmHg 80%
    21:00 +3°C° 0 mm 3 mps 748 mmHg 82%
    22:00 +3°C° 0 mm 3 mps 748 mmHg 83%
    23:00 +3°C° 0 mm 4 mps 748 mmHg 85%
    Show more